Regional Weather Roundup
Issued by NWS

Current Version | Previous Version | Text Only | Print | Product List | Glossary Off
Versions: 1 2 3 4 5 6 7 8 9 10 11 12 13 14 15 16 17 18 19 20 21 22 23 24 25 26 27

000
ASUS44 KBMX 250910
RWRAL

ALABAMA REGIONAL WEATHER ROUNDUP
NATIONAL WEATHER SERVICE BIRMINGHAM AL
300 AM CST SUN FEB 25 2018

NOTE: "FAIR" INDICATES FEW OR NO CLOUDS BELOW 12,000 FEET
WITH NO SIGNIFICANT WEATHER AND/OR OBSTRUCTIONS TO VISIBILITY.

THE REMARK "TC" DENOTES TEMPERATURE IN DEGREES CELSIUS.

ALZ001>011-014-016>018-020-251000-
NORTH ALABAMA

CITY           SKY/WX    TMP DP  RH WIND       PRES   REMARKS
MUSCLE SHOALS  LGT RAIN  54  51  90 SW6       30.00S
HUNTSVILLE     HVY RAIN  56  56 100 NW12      30.01R FOG
DECATUR        RAIN      54  53  97 W6        30.00S FOG
HALEYVILLE     LGT RAIN  51  51 100 VRB3      30.02F
GADSDEN        CLOUDY    69  66  90 S8        29.98F
$$

ALZ012-013-022-023-030>036-040>044-251000-
WEST CENTRAL ALABAMA

CITY           SKY/WX    TMP DP  RH WIND       PRES   REMARKS
TUSCALOOSA     CLOUDY    70  68  93 S7        29.95F
DEMOPOLIS        N/A     71  65  83 S12       29.97F
$$

ALZ015-024>026-033>036-041>044-251000-
CENTRAL ALABAMA

CITY           SKY/WX    TMP DP  RH WIND       PRES   REMARKS
BIRMINGHAM     CLOUDY    70  64  81 S16       30.00F
MONTGOMERY     FAIR      69  66  90 S8        30.02F
SHELBY CO ARPT CLOUDY    70  66  87 S10G18    30.00F
MAXWELL AFB    FAIR      68  65  90 S10       30.01F
GREENVILLE     CLOUDY    70  65  84 S6        30.03F
SELMA          CLOUDY    70  66  88 S7G14     30.01F
PRATTVILLE     CLOUDY    68  66  95 S6        30.01F
BESSEMER       CLOUDY    68  66  93 S12G20    29.99F
TALLADEGA      CLOUDY    70  64  83 S10G20    30.00F
PELL CITY      PTSUNNY   70  66  88 S12       29.99F
MARION         CLOUDY    69  68  97 S9        29.99F
SYLACAUGA      CLOUDY    70  66  88 S10G17    30.01F
$$

ALZ019-021-028-029-037-038-045>048-251000-
EAST CENTRAL ALABAMA

CITY           SKY/WX    TMP DP  RH WIND       PRES   REMARKS
ANNISTON       CLOUDY    70  62  76 SW8       29.99F
ALEXANDER CITY CLOUDY    68  67  96 S10       30.03F
AUBURN         CLOUDY    66  64  93 SW9       30.07F
$$

ALZ051>064-251000-
SOUTHWEST ALABAMA

CITY           SKY/WX    TMP DP  RH WIND       PRES   REMARKS
MOBILE         FAIR      70  68  93 S7        30.04F
BROOKLEY FIELD MOCLDY    69  69 100 S5        30.04F
EVERGREEN      CLOUDY    71  68  90 SW8       30.04F
$$

ALZ049-050-065>069-251000-
SOUTHEAST ALABAMA

CITY           SKY/WX    TMP DP  RH WIND       PRES   REMARKS
DOTHAN         CLOUDY    69  66  90 S8        30.10F
OZARK          CLOUDY    68  67  96 S5        30.07S
TROY           CLOUDY    69  66  90 S6G16     30.07S
EUFAULA        FAIR      67  65  93 CALM      30.06F
$$




USA.gov is the U.S. government's official web portal to all federal, state and local government web resources and services.